Powrót do katalogu

STARLINK-33612

AktywnyŁącznośćVLEO
NORAD 63325·PAYLOAD·🇺🇸 United States

Wystrzelony Mar 18, 2025 z Cape Canaveral Space Force Station

Loading…

Następne Przeloty (najbliższe 24 godziny)

TLE

ŚwieżeSource: CelesTrak SupGP

Epoka: Sep 15, 2026, 02:29 UTC

1 63325C 25057U   26258.10395833 -.00027123  00000+0 -98228-3 0  2589
2 63325  43.0041  41.4242 0001431 269.4229  51.1842 15.27595564    14

Śledź STARLINK-33612 w czasie rzeczywistym z AllMySat

Download on the App Store